This is the latest recevied weather packets stored in our database for station/object N2KI-13. If no packets are shown the sender has not sent any weather packets the latest 10 day(s).
| Time | Temp. | Humidity | Pressure | Rain* | Wind** | Luminosity | Snow |
|---|---|---|---|---|---|---|---|
| 1777795804 | 5.56° C | 67% | 1010.8 hPa | 0 mm | - | - | - |
| 1777793104 | 5° C | 79% | 1010.8 hPa | 0 mm | - | - | - |
| 1777791304 | 4.44° C | 80% | 1010.8 hPa | 0 mm | - | - | - |
| 1777789504 | 4.44° C | 79% | 1010.9 hPa | 0 mm | - | - | - |
| 1777787704 | 5° C | 77% | 1011.1 hPa | 0 mm | - | - | - |
| 1777786204 | 5° C | 75% | 1011.3 hPa | 0 mm | - | - | - |
| 1777784704 | 5.56° C | 71% | 1011.5 hPa | 0 mm | - | - | - |
| 1777783504 | 6.11° C | 69% | 1011.6 hPa | 0 mm | - | - | - |
| 1777782604 | 6.11° C | 67% | 1011.6 hPa | 0 mm | - | - | - |
| 1777780804 | 6.67° C | 63% | 1011.6 hPa | 0 mm | - | - | - |
| 1777779004 | 7.22° C | 59% | 1011.7 hPa | 0 mm | - | - | - |
| 1777778405 | 7.78° C | 61% | 1011.7 hPa | 0 mm | - | - | - |
| 1777776904 | 8.33° C | 58% | 1011.6 hPa | 0 mm | - | - | - |
| 1777773305 | 8.89° C | 56% | 1011.8 hPa | 0 mm | - | - | - |
| 1777770604 | 10° C | 53% | 1011.4 hPa | 0 mm | - | - | - |
| 1777768204 | 11.67° C | 47% | 1011 hPa | 0 mm | - | - | - |
| 1777765804 | 12.22° C | 40% | 1010.7 hPa | 0 mm | - | - | - |
| 1777764604 | 12.78° C | 40% | 1010.6 hPa | 0 mm | - | - | - |
| 1777763704 | 13.33° C | 37% | 1010.6 hPa | 0 mm | - | - | - |
| 1777762205 | 13.33° C | 39% | 1010.4 hPa | 0 mm | - | - | - |
| 1777756204 | 15° C | 35% | 1009.6 hPa | 0 mm | - | - | - |
| 1777752904 | 14.44° C | 38% | 1009.7 hPa | 0 mm | - | - | - |
| 1777752004 | 14.44° C | 38% | 1009.8 hPa | 0 mm | - | - | - |
| 1777748704 | 14.44° C | 40% | 1010.5 hPa | 0 mm | - | - | - |
| 1777748403 | 14.44° C | 42% | 1010.5 hPa | 0 mm | - | - | - |
* Rain latest hour (hover to see other rain measurements)
** Current wind speed in m/s (hover to see current wind gust speed)